Wind_Speed
38 39 39 40 40 40 38 38 38 37 36 37 37 37 37 37 38 38 38 37 36 37 36 36 35 35 36 35 35 34 34 34 35 35 35 35 36 37
37 38 38 39 38 38 38 37 38 37 37 36 37 37 37 38 38 39 39 38 37 36 36 35 36 36 36 35 34 33 34 34 34 34 34 35 35 36
37 37 37 36 36 36 37 37 36 36 36 36 37 37 38 38 38 39 39 38 38 38 38 36 36 36 35 34 33 33 33 33 33 33 34 35 34 34
36 35 35 35 35 36 36 36 36 36 37 37 37 37 38 38 39 39 38 38 38 38 38 37 36 35 34 33 33 33 33 33 33 34 35 35 34 33
35 34 33 34 34 35 35 35 36 36 36 37 37 37 37 37 37 37 37 37 38 37 37 35 34 34 34 34 34 33 33 33 34 34 34 33 33 32
33 33 33 33 34 34 34 35 35 36 36 36 36 36 35 35 35 35 35 35 35 35 35 35 35 34 34 34 34 33 33 33 33 33 32 31 32 32
31 32 33 33 34 34 33 34 34 35 35 34 34 34 33 33 33 33 33 33 33 33 34 34 34 34 33 33 34 33 32 32 32 31 31 31 31 32
30 30 31 32 34 33 33 33 33 33 33 33 32 32 31 31 31 32 32 32 32 33 33 33 32 32 32 32 32 31 31 31 31 30 29 29 30 31
29 29 31 32 32 32 32 32 32 32 32 31 30 30 29 30 30 30 31 31 31 31 32 32 32 31 31 31 30 31 31 30 29 29 29 29 29 29
28 29 29 30 30 31 32 32 32 31 31 30 30 29 29 29 29 29 30 30 30 30 31 31 31 31 31 30 30 30 30 29 29 28 28 28 28 27
27 28 28 29 30 30 30 31 30 30 30 29 29 29 29 29 30 30 30 30 30 30 31 31 31 30 29 29 29 29 29 29 29 28 27 27 26 26
26 27 28 28 29 29 29 29 29 29 29 28 28 28 28 28 28 29 29 30 30 30 31 30 29 29 27 27 28 28 27 27 27 27 27 26 25 24
27 28 28 28 28 29 29 29 28 27 27 27 26 26 27 27 27 28 29 28 29 29 29 29 28 28 28 26 25 26 27 27 27 27 26 25 24 23
27 28 28 28 28 28 28 27 27 27 26 25 24 24 25 26 26 27 27 27 27 27 27 28 27 26 25 24 25 25 25 25 24 23 23 23 22 22
26 26 27 27 27 26 26 26 26 26 26 25 23 23 24 25 26 26 26 26 26 26 26 25 25 24 23 23 24 23 23 23 23 21 21 21 21 20
24 24 25 25 25 25 25 26 26 25 24 23 22 22 23 24 24 25 25 25 25 25 24 23 23 22 21 21 21 21 21 21 21 20 20 20 19 18
23 22 22 23 24 24 25 25 24 23 22 21 21 21 22 22 22 23 23 23 23 22 22 22 21 20 20 19 18 18 18 18 18 18 18 17 17 16
22 22 22 22 22 22 22 22 21 21 20 21 20 20 21 21 21 21 21 21 21 21 21 21 20 19 19 18 18 17 17 16 16 16 15 15 15 16
21 21 21 22 22 21 20 19 19 20 20 20 20 20 20 20 20 20 20 19 19 20 19 19 18 18 18 17 16 16 16 15 15 15 14 14 14 14
20 21 21 21 20 19 18 18 18 19 18 18 18 18 18 19 19 19 18 17 18 18 17 17 17 17 16 16 15 14 15 14 14 13 13 13 13 13
19 19 19 19 18 18 18 18 18 18 18 18 18 18 18 18 18 17 16 16 16 16 16 15 15 15 15 15 15 14 14 13 13 13 13 13 12 12
18 17 17 17 17 18 18 19 19 18 18 18 18 18 17 17 17 16 15 15 15 15 15 15 14 14 14 14 14 14 13 13 12 12 12 11 11 11
16 16 16 16 17 18 18 18 19 19 19 19 19 19 18 17 17 16 15 15 15 15 15 15 14 14 14 13 13 12 12 12 11 11 11 10 10 10
Wind_Direction
266 266 268 269 270 270 270 271 272 271 270 270 270 269 268 267 266 267 269 270 270 271 271 273 276 278 278 278 279 279 280 279 277 278 277 278 279 280
268 269 269 268 269 269 270 272 272 271 272 271 270 269 268 268 267 267 268 270 271 269 270 272 274 277 277 278 279 279 281 280 278 279 280 279 281 281
270 269 268 268 269 270 271 272 272 273 274 272 271 269 269 268 268 268 268 269 269 269 270 271 273 275 277 277 277 279 280 280 279 280 281 281 282 283
270 269 268 269 270 271 273 273 274 275 274 273 271 270 270 270 269 267 267 268 268 269 270 271 273 275 275 275 276 278 279 279 279 281 282 283 283 282
269 268 269 270 270 271 273 274 275 276 275 274 273 271 270 270 269 267 266 266 267 268 269 271 273 275 276 275 277 278 279 279 279 281 283 282 281 283
268 268 269 270 271 272 273 275 276 276 276 275 274 272 270 270 269 268 266 266 267 268 269 270 274 277 277 277 278 278 280 281 281 282 281 281 281 282
268 268 269 269 270 272 274 275 276 277 276 274 273 272 270 268 268 268 266 266 268 269 270 272 274 276 278 279 280 278 279 281 281 280 280 281 283 284
269 270 269 267 269 271 273 275 277 278 276 274 273 271 270 268 267 267 265 265 267 270 271 271 273 277 277 279 279 278 278 279 279 279 280 282 284 285
271 270 270 269 269 270 273 276 277 277 277 274 273 271 269 267 266 266 266 267 269 271 271 272 274 278 277 277 278 279 278 278 279 280 282 284 285 285
271 271 271 271 271 272 274 276 277 278 277 275 273 269 268 266 265 266 266 267 269 271 272 273 276 277 278 276 275 276 278 277 277 279 283 285 286 283
273 273 273 273 274 275 276 278 278 278 278 277 274 270 268 267 265 265 266 267 269 271 273 275 276 277 276 276 275 276 277 278 278 280 282 283 283 282
274 276 274 274 275 276 277 279 279 279 278 277 274 270 267 266 265 266 268 269 269 271 273 274 276 276 274 273 274 274 275 277 279 280 279 279 281 282
274 276 276 276 276 277 277 278 279 278 277 276 272 268 266 266 266 267 268 269 272 274 275 275 276 276 276 274 272 273 274 276 277 277 276 277 279 280
278 279 277 277 277 277 277 276 276 275 276 274 271 269 267 266 265 267 269 270 273 276 276 275 275 277 276 274 273 273 274 275 274 274 272 275 277 279
280 280 278 276 276 276 274 273 273 273 272 270 269 270 268 266 265 268 271 273 273 275 276 276 276 277 277 277 275 274 272 272 272 271 273 275 276 276
280 279 277 275 275 274 273 272 271 270 268 267 269 269 268 267 267 269 272 273 273 275 275 276 276 277 277 276 275 273 272 270 267 268 271 273 272 272
279 278 276 275 275 275 274 273 271 269 267 266 268 270 269 267 268 269 272 274 273 272 273 275 276 276 276 273 273 271 269 267 265 267 267 266 267 272
279 278 278 277 276 275 274 272 269 265 264 265 267 269 268 266 266 269 272 272 270 271 273 272 273 274 273 271 272 267 262 262 262 265 269 269 268 271
280 281 281 279 277 275 272 270 267 264 264 265 265 268 268 267 266 269 271 269 269 271 271 272 272 270 270 269 268 265 260 261 263 265 267 269 270 272
281 283 282 279 277 274 270 268 266 263 262 263 264 266 268 270 269 271 270 269 268 268 267 268 270 269 267 267 264 261 258 259 259 260 262 267 269 270
284 284 282 280 275 271 269 267 265 262 261 261 264 265 267 268 269 271 268 268 267 264 264 266 266 266 266 266 261 256 257 258 260 260 260 264 263 262
286 285 282 279 276 272 269 267 264 261 260 260 263 264 266 265 266 267 266 264 264 264 263 262 263 263 264 263 257 253 255 256 258 258 259 261 260 257
285 284 282 282 280 275 271 267 265 262 261 261 262 263 264 265 264 264 264 262 259 261 260 259 259 259 262 262 256 253 253 253 253 252 253 255 258 257
Height
5622 5624 5624 5625 5625 5625 5625 5625 5626 5626 5627 5626 5625 5625 5626 5627 5627 5628 5628 5628 5628 5628 5628 5628 5628 5628 5627 5627 5626 5625 5625 5624 5624 5623 5623 5623 5622 5621
5612 5613 5614 5614 5614 5614 5615 5615 5615 5615 5616 5616 5616 5615 5616 5616 5616 5617 5618 5618 5618 5618 5618 5618 5618 5618 5617 5617 5616 5616 5615 5615 5614 5614 5614 5613 5612 5611
5603 5603 5604 5604 5604 5605 5605 5605 5604 5604 5605 5606 5605 5605 5605 5605 5606 5606 5607 5607 5607 5607 5608 5608 5608 5608 5608 5607 5607 5606 5606 5605 5605 5604 5604 5603 5601 5600
5594 5594 5595 5595 5595 5595 5595 5595 5594 5594 5595 5595 5595 5595 5594 5594 5595 5596 5596 5596 5597 5597 5597 5598 5598 5598 5598 5597 5597 5596 5596 5596 5595 5595 5593 5592 5591 5589
5584 5584 5585 5585 5585 5585 5585 5585 5585 5584 5584 5584 5584 5584 5584 5583 5584 5585 5585 5586 5586 5587 5587 5588 5588 5588 5588 5587 5587 5587 5586 5586 5586 5584 5583 5582 5580 5579
5574 5575 5575 5576 5576 5576 5576 5576 5575 5574 5574 5573 5573 5573 5573 5573 5573 5574 5575 5576 5577 5577 5578 5578 5579 5578 5578 5577 5578 5577 5577 5576 5575 5574 5573 5572 5571 5570
5564 5565 5566 5566 5567 5567 5567 5566 5565 5564 5563 5563 5562 5562 5563 5563 5564 5565 5566 5567 5567 5568 5569 5569 5569 5569 5568 5567 5567 5566 5567 5566 5565 5564 5563 5562 5562 5560
5555 5555 5556 5557 5557 5557 5557 5556 5555 5554 5553 5553 5553 5552 5553 5553 5554 5555 5556 5558 5559 5560 5560 5560 5560 5560 5559 5558 5557 5557 5557 5557 5556 5555 5554 5553 5552 5551
5546 5547 5547 5548 5548 5548 5547 5546 5546 5544 5544 5544 5543 5543 5544 5545 5546 5547 5548 5549 5550 5550 5551 5551 5551 5550 5550 5549 5548 5548 5548 5548 5547 5546 5545 5544 5543 5541
5537 5538 5538 5539 5538 5538 5537 5537 5536 5535 5535 5534 5534 5534 5534 5535 5536 5538 5539 5540 5540 5541 5541 5542 5542 5542 5541 5540 5540 5539 5539 5539 5538 5537 5536 5535 5534 5533
5528 5529 5529 5529 5529 5528 5528 5527 5527 5526 5525 5524 5524 5525 5525 5526 5527 5528 5530 5530 5532 5532 5532 5533 5533 5532 5533 5532 5531 5530 5530 5529 5529 5528 5527 5526 5526 5525
5520 5520 5520 5520 5520 5518 5518 5518 5518 5517 5516 5516 5515 5516 5517 5517 5518 5520 5520 5522 5523 5524 5523 5523 5524 5523 5525 5525 5523 5522 5521 5521 5520 5520 5519 5518 5518 5517
5511 5511 5511 5510 5510 5510 5509 5509 5509 5508 5507 5507 5507 5507 5508 5509 5510 5511 5512 5513 5514 5515 5515 5514 5515 5514 5514 5515 5515 5514 5513 5513 5512 5512 5511 5511 5510 5510
5503 5503 5502 5501 5501 5501 5500 5500 5500 5499 5499 5499 5499 5500 5501 5501 5502 5503 5504 5504 5505 5506 5506 5506 5506 5506 5506 5506 5506 5506 5505 5505 5504 5504 5504 5504 5503 5503
5494 5494 5493 5492 5492 5492 5492 5492 5491 5491 5491 5492 5492 5493 5494 5494 5495 5496 5496 5497 5497 5497 5497 5498 5498 5498 5498 5498 5498 5498 5498 5498 5497 5498 5498 5497 5497 5497
5486 5485 5485 5484 5484 5484 5484 5483 5483 5483 5483 5484 5485 5486 5486 5487 5488 5489 5489 5489 5490 5490 5490 5490 5490 5491 5491 5491 5491 5491 5491 5491 5491 5491 5491 5492 5491 5491
5478 5478 5477 5477 5477 5476 5475 5475 5475 5475 5476 5477 5478 5479 5480 5480 5481 5482 5482 5483 5483 5484 5484 5484 5484 5484 5484 5484 5484 5484 5484 5484 5485 5485 5485 5486 5486 5486
5471 5471 5470 5470 5470 5469 5468 5468 5468 5468 5470 5471 5472 5473 5474 5474 5475 5475 5476 5476 5477 5477 5478 5478 5479 5479 5479 5479 5479 5479 5479 5479 5479 5480 5480 5481 5481 5481
5465 5464 5464 5463 5462 5462 5461 5461 5462 5463 5464 5465 5466 5467 5467 5468 5469 5470 5470 5470 5471 5471 5472 5472 5473 5473 5474 5475 5475 5474 5474 5475 5475 5476 5476 5477 5477 5477
5458 5458 5457 5456 5455 5455 5455 5456 5456 5457 5458 5459 5460 5461 5462 5463 5463 5464 5464 5465 5465 5466 5467 5467 5468 5468 5469 5469 5470 5470 5470 5471 5471 5472 5473 5473 5473 5473
5452 5451 5450 5450 5449 5449 5450 5450 5451 5451 5453 5454 5455 5456 5457 5457 5458 5459 5459 5460 5460 5461 5462 5463 5463 5463 5464 5464 5465 5466 5466 5467 5467 5468 5469 5470 5470 5470
5446 5445 5445 5444 5444 5444 5444 5444 5445 5446 5447 5448 5450 5451 5452 5453 5453 5454 5455 5455 5456 5457 5458 5458 5459 5459 5460 5461 5461 5462 5463 5464 5464 5464 5465 5466 5467 5467
5441 5440 5440 5439 5439 5438 5438 5439 5440 5441 5442 5443 5444 5445 5446 5447 5448 5449 5450 5451 5452 5453 5453 5454 5455 5456 5456 5457 5457 5459 5460 5461 5461 5462 5463 5463 5464 5464